,

(GMT )
Hultsfred

Weather History for ESSF - June, 2013

Change the Weather History Date:

Saturday, June 15, 2013

  Actual Average Record
Temperature  
Mean Temperature 59 °F -  
Max Temperature 70 °F - - ()
Min Temperature 48 °F - - ()
Degree Days  
Heating Degree Days 6    
Growing Degree Days 9 (Base 50)    
Moisture  
Dew Point 45 °F    
Average Humidity 53    
Maximum Humidity 83    
Minimum Humidity 29    
Precipitation  
Precipitation 0.08 in - - ()
Sea Level Pressure  
Sea Level Pressure 29.91 in    
Wind  
Wind Speed 7 mph ()    
Max Wind Speed 11 mph    
Max Gust Speed -    
Visibility 10.4 miles    
Events      
T = Trace of Precipitation, MM = Missing Value Source: Averaged Metar Reports

Daily Weather History Graph

Daily Weather History Graph

Search for Another Location

Airport or City:

Trip Planner

Search our weather history database for the weather conditions in past years. The results will help you decide how hot, cold, wet, or windy it might be!

Date:

Astronomy

Jun. 15, 2013 Rise Set
Actual Time 3:57 AM CEST 9:57 PM CEST
Civil Twilight 2:46 AM CEST 11:08 PM CEST
Nautical Twilight 1:29 AM CEST 12:24 AM CEST
Astronomical Twilight Sun does not set Sun does not set
Moon 11:32 AM CEST (6/15) 12:11 AM CEST (6/15)
Length of Visible Light 20h 22m
Length of Day
17h 59m
Waxing Crescent, 37% of the Moon is Illuminated
Jun 15
Waxing Crescent
Jun 16
First Quarter
Jun 23
Full
Jun 30
Last Quarter
Jul 8
New

Hourly Weather History & Observations

Time (CEST) Temp. Dew Point Humidity Pressure Visibility Wind Dir Wind Speed Gust Speed Precip Events Conditions
12:00 AM 52 °F 47 °F 77% 29.91 in 9 mi WSW 6.7 mph - -   Clear
1:00 AM 52 °F 47 °F 79% 29.92 in 11 mi WSW 6.7 mph - -   Clear
2:00 AM 51 °F 47 °F 83% 29.93 in 9 mi SW 6.7 mph - -   Clear
3:00 AM 51 °F 47 °F 80% 29.94 in 9 mi SW 6.7 mph - -  
4:00 AM 50 °F 46 °F 80% 29.96 in 11 mi West 8.9 mph - -   Clear
6:00 AM 51 °F 47 °F 80% 29.97 in 8 mi WSW 8.9 mph - -   Clear
7:00 AM 53 °F 46 °F 70% 29.97 in 11 mi West 11.2 mph - -   Clear
8:00 AM 54 °F 45 °F 63% 29.98 in 8 mi WSW 8.9 mph - -   Clear
9:00 AM 57 °F 45 °F 53% 29.97 in 12 mi WSW 11.2 mph - -   Scattered Clouds
10:00 AM 59 °F 44 °F 46% 29.96 in 11 mi SW 11.2 mph - -  
12:00 PM 64 °F 44 °F 36% 29.94 in 11 mi WSW 6.7 mph - -  
1:00 PM 65 °F 44 °F 36% 29.94 in 10 mi WSW 11.2 mph - -  
2:00 PM 65 °F 41 °F 30% 29.92 in 11 mi SSW 6.7 mph - -   Partly Cloudy
3:00 PM 68 °F 44 °F 30% 29.91 in 11 mi SW 8.9 mph - -   Scattered Clouds
4:00 PM 67 °F 42 °F 29% 29.88 in 12 mi SSW 6.7 mph - -   Partly Cloudy
6:00 PM 66 °F 44 °F 33% 29.85 in 9 mi SSW 8.9 mph - -   Mostly Cloudy
7:00 PM 67 °F 44 °F 32% 29.84 in 11 mi South 11.2 mph - -  
8:00 PM 64 °F 43 °F 34% 29.82 in 12 mi South 6.7 mph - -   Scattered Clouds
9:00 PM 61 °F 45 °F 45% 29.80 in 10 mi SE 4.5 mph - -   Mostly Cloudy
10:00 PM 59 °F 45 °F 48% 29.80 in 12 mi SE 6.7 mph - -   Scattered Clouds